DT_LEITURA;HR_LEITURA;MED-PressaoAtm[hPa];VAL-TempExt[oC];VAL-UmidExt[%UR];VAL-TempInt[oC];VAL-UmidInt[%UR];Dir-Vento[grau];Vel-Vento[m/s];Precipitação[mm/h]
03/09/2026;00:04:00;1017,0;;;18,3;78;21;6,7;0,0
03/09/2026;00:09:00;1016,9;;;18,3;78;23;6,4;0,0
03/09/2026;00:14:00;1016,8;;;18,3;78;22;6,5;0,0
03/09/2026;00:19:00;1016,7;;;18,3;78;21;6,2;0,0
03/09/2026;00:24:00;1016,7;;;18,2;78;22;6,1;0,0
03/09/2026;00:29:00;1016,7;;;18,2;78;22;5,6;0,0
03/09/2026;00:34:00;1016,6;;;18,2;78;24;6,2;0,0
03/09/2026;00:39:00;1016,5;;;18,2;78;21;6,4;0,0
03/09/2026;00:44:00;1016,4;;;18,2;78;15;6,6;0,0
03/09/2026;00:49:00;1016,3;;;18,2;78;17;6,7;0,0
03/09/2026;00:54:00;1016,4;;;18,3;78;22;4,4;0,0
03/09/2026;00:59:00;1016,4;;;18,3;78;22;4,6;0,0
03/09/2026;01:04:00;1016,3;;;18,3;78;20;4,4;0,0
03/09/2026;01:09:00;1016,3;;;18,3;78;20;4,8;0,0
03/09/2026;01:14:00;1016,2;;;18,2;78;24;6,5;0,0
03/09/2026;01:19:00;1016,1;;;18,2;78;23;6,4;0,0
03/09/2026;01:24:00;1016,1;;;18,2;78;22;6,0;0,0
03/09/2026;01:29:00;1016,1;;;18,2;78;23;4,8;0,0
03/09/2026;01:34:00;1016,1;;;18,2;78;24;5,9;0,0
03/09/2026;01:39:00;1016,0;;;18,2;78;26;6,5;0,0
03/09/2026;01:44:00;1015,9;;;18,2;78;24;6,3;0,0
03/09/2026;01:49:00;1015,8;;;18,2;78;23;5,8;0,0
03/09/2026;01:54:00;1015,7;;;18,2;78;23;5,5;0,0
03/09/2026;01:59:00;1015,6;;;18,2;78;23;5,8;0,0
03/09/2026;02:04:00;1015,5;;;18,1;78;22;5,9;0,0
03/09/2026;02:09:00;1015,5;;;18,1;78;21;5,9;0,0
03/09/2026;02:14:00;1015,4;;;18,1;78;23;5,6;0,0
03/09/2026;02:19:00;1015,4;;;18,1;78;21;5,1;0,0
03/09/2026;02:24:00;1015,4;;;18,1;78;21;4,0;0,0
03/09/2026;02:29:00;1015,4;;;18,0;78;12;3,8;0,0
03/09/2026;02:34:00;1015,3;;;18,0;77;15;2,9;0,0
03/09/2026;02:39:00;1015,3;;;17,9;77;22;2,8;0,0
03/09/2026;02:44:00;1015,3;;;17,7;78;24;2,8;0,0
03/09/2026;02:49:00;1015,2;;;17,6;78;23;2,7;0,0
03/09/2026;02:54:00;1015,1;;;17,5;78;19;2,8;0,0
03/09/2026;02:59:00;1015,1;;;17,4;78;20;3,0;0,0
03/09/2026;03:04:00;1015,0;;;17,4;78;21;3,0;0,0
03/09/2026;03:09:00;1014,8;;;17,3;78;20;3,2;0,0
03/09/2026;03:14:00;1014,8;;;17,2;78;19;3,3;0,0
03/09/2026;03:19:00;1014,7;;;17,2;78;22;2,9;0,0
03/09/2026;03:24:00;1014,7;;;17,1;78;24;2,8;0,0
03/09/2026;03:29:00;1014,6;;;17,1;79;22;2,5;0,0
03/09/2026;03:34:00;1014,4;;;17,1;79;22;2,9;0,0
03/09/2026;03:39:00;1014,3;;;17,1;78;17;3,7;0,0
03/09/2026;03:44:00;1014,2;;;17,1;78;19;3,2;0,0
03/09/2026;03:49:00;1014,1;;;17,1;78;27;3,1;0,0
03/09/2026;03:54:00;1014,1;;;17,0;78;22;3,4;0,0
03/09/2026;03:59:00;1014,1;;;17,0;79;25;4,0;0,0
03/09/2026;04:04:00;1014,0;;;17,1;79;20;3,7;0,0
03/09/2026;04:09:00;1014,0;;;17,1;79;22;3,8;0,0
03/09/2026;04:14:00;1013,9;;;17,2;79;23;4,0;0,0
03/09/2026;04:19:00;1013,7;;;17,3;79;24;4,1;0,0
03/09/2026;04:24:00;1013,6;;;17,4;79;26;4,0;0,0
03/09/2026;04:29:00;1013,3;;;17,5;79;25;3,9;0,0
03/09/2026;04:34:00;1013,2;;;17,5;79;21;3,9;0,0
03/09/2026;04:39:00;1013,2;;;17,6;79;19;4,4;0,0
03/09/2026;04:44:00;1013,3;;;17,7;79;22;4,7;0,0
03/09/2026;04:49:00;1013,2;;;17,7;79;24;4,8;0,0
03/09/2026;04:54:00;1013,1;;;17,8;79;25;5,3;0,0
03/09/2026;04:59:00;1013,1;;;17,9;78;23;5,1;0,0
03/09/2026;05:04:00;1013,1;;;18,0;78;26;4,8;0,0
03/09/2026;05:09:00;1013,1;;;18,0;78;29;4,3;0,0
03/09/2026;05:14:00;1013,0;;;18,0;78;27;4,0;0,0
03/09/2026;05:19:00;1012,9;;;18,1;78;25;3,6;0,0
03/09/2026;05:24:00;1012,9;;;18,0;78;25;4,0;0,0
03/09/2026;05:29:00;1012,9;;;18,0;78;22;4,0;0,0
03/09/2026;05:34:00;1012,9;;;18,0;78;27;3,6;0,0
03/09/2026;05:39:00;1013,0;;;18,0;78;25;3,6;0,0
03/09/2026;05:44:00;1013,0;;;18,0;78;19;3,8;0,0
03/09/2026;05:49:00;1013,0;;;18,0;78;21;3,5;0,0
03/09/2026;05:54:00;1013,0;;;18,0;78;21;4,2;0,0
03/09/2026;05:59:00;1013,0;;;18,0;78;19;3,7;0,0
03/09/2026;06:04:00;1013,0;;;18,0;78;17;4,0;0,0
03/09/2026;06:09:00;1013,1;;;18,0;78;17;3,6;0,0
03/09/2026;06:14:00;1013,1;;;18,0;78;17;3,6;0,0
03/09/2026;06:19:00;1013,1;;;18,0;78;23;4,9;0,0
03/09/2026;06:24:00;1013,0;;;18,0;78;25;4,7;0,0
03/09/2026;06:29:00;1013,1;;;18,1;78;24;5,0;0,0
03/09/2026;06:34:00;1013,1;;;18,2;78;24;5,2;0,0
03/09/2026;06:39:00;1013,2;;;18,2;78;23;5,0;0,0
03/09/2026;06:44:00;1013,2;;;18,3;78;23;4,8;0,0
03/09/2026;06:49:00;1013,3;;;18,3;78;23;5,2;0,0
03/09/2026;06:54:00;1013,5;;;18,4;78;23;4,7;0,0
03/09/2026;06:59:00;1013,7;;;18,4;78;22;4,4;0,0
03/09/2026;07:04:00;1013,7;;;18,5;78;21;3,9;0,0
03/09/2026;07:09:00;1013,8;;;18,5;78;18;3,5;0,0
03/09/2026;07:14:00;1013,7;;;18,5;78;19;3,7;0,0
03/09/2026;07:19:00;1013,8;;;18,6;78;17;3,5;0,0
03/09/2026;07:24:00;1013,8;;;18,6;78;17;3,6;0,0
03/09/2026;07:29:00;1013,9;;;18,6;78;22;4,5;0,0
03/09/2026;07:34:00;1013,8;;;18,7;78;20;4,2;0,0
03/09/2026;07:39:00;1013,8;;;18,7;78;15;4,8;0,0
03/09/2026;07:44:00;1013,6;;;18,7;78;19;4,8;0,0
03/09/2026;07:49:00;1013,5;;;18,8;78;22;4,6;0,0
03/09/2026;07:54:00;1013,5;;;18,8;78;22;4,6;0,0
03/09/2026;07:59:00;1013,5;;;18,9;79;20;5,0;0,0
03/09/2026;08:04:00;1013,6;;;19,1;80;25;4,7;0,0
03/09/2026;08:09:00;1013,6;;;19,2;81;24;4,9;0,0
03/09/2026;08:14:00;1013,6;;;19,4;81;25;5,2;0,0
03/09/2026;08:19:00;1013,6;;;19,5;81;26;5,5;0,0
03/09/2026;08:24:00;1013,5;;;19,7;81;25;5,5;0,0
03/09/2026;08:29:00;1013,5;;;19,8;80;26;6,2;0,0
03/09/2026;08:34:00;1013,5;;;19,9;80;26;6,2;0,0
03/09/2026;08:39:00;1013,4;;;20,0;80;25;6,8;0,0
03/09/2026;08:44:00;1013,4;;;20,1;79;23;7,0;0,0
03/09/2026;08:49:00;1013,3;;;20,2;79;24;7,2;0,0
03/09/2026;08:54:00;1013,3;;;20,3;79;22;7,4;0,0
03/09/2026;08:59:00;1013,3;;;20,3;79;24;8,3;0,0
03/09/2026;09:04:00;1013,3;;;20,4;79;23;8,4;0,0
03/09/2026;09:09:00;1013,4;;;20,4;79;21;7,6;0,0
03/09/2026;09:14:00;1013,4;;;20,5;79;22;7,5;0,0
03/09/2026;09:19:00;1013,4;;;20,6;79;23;7,2;0,0
03/09/2026;09:24:00;1013,4;;;20,7;79;24;7,3;0,0
03/09/2026;09:29:00;1013,4;;;20,8;78;23;7,1;0,0
03/09/2026;09:34:00;1013,4;;;20,8;78;21;5,3;0,0
03/09/2026;09:39:00;1013,4;;;20,9;79;20;5,1;0,0
03/09/2026;09:44:00;1013,4;;;21,0;79;18;5,9;0,0
03/09/2026;09:49:00;1013,4;;;21,2;79;18;5,7;0,0
03/09/2026;09:54:00;1013,4;;;21,3;78;22;6,0;0,0
03/09/2026;09:59:00;1013,5;;;21,5;78;20;7,2;0,0
03/09/2026;10:04:00;1013,5;;;21,5;77;24;7,3;0,0
03/09/2026;10:09:00;1013,6;;;21,5;77;24;7,2;0,0
03/09/2026;10:14:00;1013,8;;;21,5;77;23;7,3;0,0
03/09/2026;10:19:00;1014,0;;;21,6;77;24;6,6;0,0
03/09/2026;10:24:00;1014,1;;;21,6;77;22;6,7;0,0
03/09/2026;10:29:00;1014,1;;;21,6;78;26;6,2;0,0
03/09/2026;10:34:00;1014,1;;;21,7;78;26;6,3;0,0
03/09/2026;10:39:00;1014,2;;;21,7;77;25;6,0;0,0
03/09/2026;10:44:00;1014,2;;;21,8;77;25;6,4;0,0
03/09/2026;10:49:00;1014,1;;;21,8;77;24;6,6;0,0
03/09/2026;10:54:00;1014,1;;;21,9;77;23;6,4;0,0
03/09/2026;10:59:00;1014,1;;;21,9;77;22;6,3;0,0
03/09/2026;11:04:00;1014,0;;;22,0;77;22;6,1;0,0
03/09/2026;11:09:00;1013,9;;;22,0;77;22;6,3;0,0
03/09/2026;11:14:00;1013,9;;;22,1;77;21;5,9;0,0
03/09/2026;11:19:00;1013,9;;;22,2;77;21;5,7;0,0
03/09/2026;11:24:00;1013,9;;;22,2;77;23;5,7;0,0
03/09/2026;11:29:00;1013,9;;;22,3;77;24;5,3;0,0
03/09/2026;11:34:00;1013,9;;;22,3;77;24;5,6;0,0
03/09/2026;11:39:00;1013,8;;;22,4;77;23;5,2;0,0
03/09/2026;11:44:00;1013,8;;;22,5;77;24;5,1;0,0
03/09/2026;11:49:00;1013,7;;;22,6;77;26;5,1;0,0
03/09/2026;11:54:00;1013,5;;;22,6;77;26;5,0;0,0
03/09/2026;11:59:00;1013,4;;;22,6;77;27;5,1;0,0
03/09/2026;12:04:00;1013,2;;;22,6;77;27;4,9;0,0
03/09/2026;12:09:00;1013,1;;;22,6;77;28;5,1;0,0
03/09/2026;12:14:00;1013,1;;;22,6;77;27;5,2;0,0
03/09/2026;12:19:00;1012,9;;;22,6;77;27;5,6;0,0
03/09/2026;12:24:00;1012,8;;;22,6;77;28;5,4;0,0
03/09/2026;12:29:00;1012,7;;;22,7;77;26;5,2;0,0
03/09/2026;12:34:00;1012,7;;;22,7;77;26;5,3;0,0
03/09/2026;12:39:00;1012,6;;;22,6;77;27;4,6;0,0
03/09/2026;12:44:00;1012,5;;;22,6;77;28;4,6;0,0
03/09/2026;12:49:00;1012,4;;;22,7;77;27;5,1;0,0
03/09/2026;12:54:00;1012,3;;;22,7;77;24;5,2;0,0
03/09/2026;12:59:00;1012,1;;;22,7;77;25;5,4;0,0
03/09/2026;13:04:00;1011,9;;;22,7;77;26;5,5;0,0
03/09/2026;13:09:00;1011,8;;;22,7;77;27;5,1;0,0
03/09/2026;13:14:00;1011,7;;;22,8;77;31;4,8;0,0
03/09/2026;13:19:00;1011,6;;;22,8;77;31;5,1;0,0
03/09/2026;13:24:00;1011,5;;;22,8;77;29;4,9;0,0
03/09/2026;13:29:00;1011,3;;;22,8;77;26;5,5;0,0
03/09/2026;13:34:00;1011,3;;;22,8;77;27;5,2;0,0
03/09/2026;13:39:00;1011,3;;;22,8;77;27;4,8;0,0
03/09/2026;13:44:00;1011,2;;;22,8;77;26;5,6;0,0
03/09/2026;13:49:00;1011,1;;;22,8;77;26;5,3;0,0
03/09/2026;13:54:00;1011,1;;;22,8;77;27;5,0;0,0
03/09/2026;13:59:00;1011,0;;;22,8;77;29;4,8;0,0
03/09/2026;14:04:00;1010,9;;;22,8;77;26;4,2;0,0
03/09/2026;14:09:00;1010,8;;;22,8;77;31;4,4;0,0
03/09/2026;14:14:00;1010,7;;;22,8;77;25;5,9;0,0
03/09/2026;14:19:00;1010,5;;;22,8;76;26;6,5;0,0
03/09/2026;14:24:00;1010,5;;;22,7;76;25;6,3;0,0
03/09/2026;14:29:00;1010,5;;;22,6;76;25;5,7;0,0
03/09/2026;14:34:00;1010,4;;;22,6;77;28;5,4;0,0
03/09/2026;14:39:00;1010,4;;;22,6;77;27;5,6;0,0
03/09/2026;14:44:00;1010,3;;;22,6;77;25;5,9;0,0
03/09/2026;14:49:00;1010,2;;;22,6;77;26;5,5;0,0
03/09/2026;14:54:00;1010,2;;;22,5;76;28;5,3;0,0
03/09/2026;14:59:00;1010,1;;;22,3;76;26;5,8;0,0
03/09/2026;15:04:00;1010,0;;;22,3;76;26;5,9;0,0
03/09/2026;15:09:00;1009,9;;;22,2;77;26;5,9;0,0
03/09/2026;15:14:00;1009,9;;;22,1;77;27;6,2;0,0
03/09/2026;15:19:00;1009,9;;;22,1;77;25;5,4;0,0
03/09/2026;15:24:00;1009,9;;;22,0;77;28;5,1;0,0
03/09/2026;15:29:00;1009,7;;;22,0;77;27;5,4;0,0
03/09/2026;15:34:00;1009,6;;;22,0;77;26;5,2;0,0
03/09/2026;15:39:00;1009,5;;;22,0;77;27;5,5;0,0
03/09/2026;15:44:00;1009,5;;;22,0;77;28;6,0;0,0
03/09/2026;15:49:00;1009,6;;;22,1;77;26;5,5;0,0
03/09/2026;15:54:00;1009,5;;;22,1;77;26;5,1;0,0
03/09/2026;15:59:00;1009,6;;;22,2;77;25;4,9;0,0
03/09/2026;16:04:00;1009,7;;;22,2;77;21;4,8;0,0
03/09/2026;16:09:00;1009,7;;;22,2;77;27;5,0;0,0
03/09/2026;16:14:00;1009,7;;;22,2;77;27;4,7;0,0
03/09/2026;16:19:00;1009,6;;;22,2;77;27;4,9;0,0
03/09/2026;16:24:00;1009,7;;;22,2;77;26;5,2;0,0
03/09/2026;16:29:00;1009,7;;;22,2;77;24;5,3;0,0
03/09/2026;16:34:00;1009,7;;;22,3;77;22;5,3;0,0
03/09/2026;16:39:00;1009,7;;;22,3;77;22;5,4;0,0
03/09/2026;16:44:00;1009,5;;;22,4;76;26;5,5;0,0
03/09/2026;16:49:00;1009,4;;;22,4;76;26;5,5;0,0
03/09/2026;16:54:00;1009,4;;;22,4;76;23;5,2;0,0
03/09/2026;16:59:00;1009,6;;;22,4;76;23;4,7;0,0
03/09/2026;17:04:00;1009,7;;;22,3;75;22;5,0;0,0
03/09/2026;17:09:00;1009,8;;;22,3;75;24;4,5;0,0
03/09/2026;17:14:00;1009,8;;;22,2;76;26;4,5;0,0
03/09/2026;17:19:00;1009,8;;;22,1;75;30;3,6;0,0
03/09/2026;17:24:00;1009,8;;;22,1;76;29;3,9;0,0
03/09/2026;17:29:00;1009,8;;;22,1;76;29;4,3;0,0
03/09/2026;17:34:00;1009,9;;;22,0;75;28;4,7;0,0
03/09/2026;17:39:00;1009,8;;;22,0;75;28;4,8;0,0
03/09/2026;17:44:00;1010,0;;;21,8;75;29;4,2;0,0
03/09/2026;17:49:00;1009,8;;;21,7;75;31;3,4;0,0
03/09/2026;17:54:00;1009,8;;;21,5;76;26;3,2;0,0
03/09/2026;17:59:00;1009,8;;;21,4;76;42;4,0;0,0
03/09/2026;18:04:00;1009,8;;;21,2;76;41;3,9;0,0
03/09/2026;18:09:00;1009,8;;;21,1;76;40;3,7;0,0
03/09/2026;18:14:00;1009,9;;;21,0;77;42;3,2;0,0
03/09/2026;18:19:00;1009,9;;;20,9;77;31;2,6;0,0
03/09/2026;18:24:00;1009,9;;;20,8;77;22;4,2;0,0
03/09/2026;18:29:00;1010,0;;;20,8;77;23;3,9;0,0
03/09/2026;18:34:00;1010,1;;;20,8;77;26;3,5;0,0
03/09/2026;18:39:00;1010,1;;;20,7;77;33;4,0;0,0
03/09/2026;18:44:00;1010,0;;;20,7;77;31;4,6;0,0
03/09/2026;18:49:00;1010,0;;;20,7;77;30;4,3;0,0
03/09/2026;18:54:00;1010,0;;;20,6;77;30;3,8;0,0
03/09/2026;18:59:00;1010,0;;;20,6;77;28;3,7;0,0
03/09/2026;19:04:00;1010,1;;;20,6;77;27;3,7;0,0
03/09/2026;19:09:00;1010,1;;;20,5;77;23;3,7;0,0
03/09/2026;19:14:00;1010,1;;;20,5;77;21;3,7;0,0
03/09/2026;19:19:00;1010,1;;;20,5;77;16;3,3;0,0
03/09/2026;19:24:00;1010,2;;;20,5;77;21;3,1;0,0
03/09/2026;19:29:00;1010,2;;;20,5;77;31;3,0;0,0
03/09/2026;19:34:00;1010,3;;;20,4;77;29;3,5;0,0
03/09/2026;19:39:00;1010,3;;;20,4;77;25;3,5;0,0
03/09/2026;19:44:00;1010,2;;;20,4;77;26;3,9;0,0
03/09/2026;19:49:00;1010,2;;;20,3;77;25;3,7;0,0
03/09/2026;19:54:00;1010,2;;;20,3;77;28;4,0;0,0
03/09/2026;19:59:00;1010,2;;;20,2;77;30;4,1;0,0
03/09/2026;20:04:00;1010,3;;;20,2;77;29;3,7;0,0
03/09/2026;20:09:00;1010,4;;;20,2;77;30;4,1;0,0
03/09/2026;20:14:00;1010,5;;;20,2;77;27;3,4;0,0
03/09/2026;20:19:00;1010,5;;;20,1;77;32;3,5;0,0
03/09/2026;20:24:00;1010,5;;;20,1;77;28;3,5;0,0
03/09/2026;20:29:00;1010,6;;;20,1;77;21;4,0;0,0
03/09/2026;20:34:00;1010,6;;;20,1;77;26;3,3;0,0
03/09/2026;20:39:00;1010,6;;;20,1;77;21;2,9;0,0
03/09/2026;20:44:00;1010,6;;;20,1;77;36;3,0;0,0
03/09/2026;20:49:00;1010,6;;;20,1;77;37;2,6;0,0
03/09/2026;20:54:00;1010,6;;;20,0;77;46;2,1;0,0
03/09/2026;20:59:00;1010,6;;;20,0;77;59;2,3;0,0
03/09/2026;21:04:00;1010,5;;;19,9;77;49;2,2;0,0
03/09/2026;21:09:00;1010,5;;;19,9;77;50;2,1;0,0
03/09/2026;21:14:00;1010,4;;;19,8;77;43;2,1;0,0
03/09/2026;21:19:00;1010,4;;;19,8;77;48;1,8;0,0
03/09/2026;21:24:00;1010,4;;;19,8;77;65;2,0;0,0
03/09/2026;21:29:00;1010,4;;;19,7;77;63;2,5;0,0
03/09/2026;21:34:00;1010,4;;;19,7;77;45;1,6;0,0
03/09/2026;21:39:00;1010,4;;;19,6;77;31;2,2;0,0
03/09/2026;21:44:00;1010,4;;;19,6;77;35;2,0;0,0
03/09/2026;21:49:00;1010,3;;;19,6;77;39;2,1;0,0
03/09/2026;21:54:00;1010,3;;;19,6;77;41;2,4;0,0
03/09/2026;21:59:00;1010,2;;;19,6;77;39;2,4;0,0
03/09/2026;22:04:00;1010,2;;;19,6;77;37;2,0;0,0
03/09/2026;22:09:00;1010,1;;;19,6;77;47;1,7;0,0
03/09/2026;22:14:00;1010,1;;;19,6;77;46;1,4;0,0
03/09/2026;22:19:00;1010,1;;;19,6;77;43;1,7;0,0
03/09/2026;22:24:00;1010,1;;;19,5;77;38;1,7;0,0
03/09/2026;22:29:00;1010,1;;;19,5;77;51;1,5;0,0
03/09/2026;22:34:00;1010,1;;;19,5;77;52;1,4;0,0
03/09/2026;22:39:00;1010,1;;;19,5;77;40;1,7;0,0
03/09/2026;22:44:00;1010,0;;;19,5;77;50;1,3;0,0
03/09/2026;22:49:00;1009,9;;;19,4;77;47;1,7;0,0
03/09/2026;22:54:00;1009,8;;;19,4;77;52;1,7;0,0
03/09/2026;22:59:00;1009,8;;;19,4;77;63;2,3;0,0
03/09/2026;23:04:00;1010,0;;;19,4;77;66;2,4;0,0
03/09/2026;23:09:00;1009,9;;;19,4;77;63;1,9;0,0
03/09/2026;23:14:00;1009,9;;;19,3;77;65;1,6;0,0
03/09/2026;23:19:00;1010,0;;;19,3;77;66;2,2;0,0
03/09/2026;23:24:00;1010,0;;;19,3;77;61;2,8;0,0
03/09/2026;23:29:00;1010,0;;;19,3;78;55;2,9;0,0
03/09/2026;23:34:00;1009,9;;;19,3;78;47;1,8;0,0
03/09/2026;23:39:00;1009,9;;;19,2;78;45;1,9;0,0
03/09/2026;23:44:00;1009,8;;;19,2;78;46;1,7;0,0
03/09/2026;23:49:00;1009,8;;;19,2;78;44;1,4;0,0
03/09/2026;23:54:00;1009,7;;;19,2;78;53;1,7;0,0
03/09/2026;23:59:00;1009,7;;;19,2;78;49;1,0;0,0
